�������l�o���
Date,Time,MP-1(��Sv/h),MP-2(��Sv/h),MP-3(��Sv/h),MP-4(��Sv/h),MP-5(��Sv/h),MP-6(��Sv/h),MP-7(��Sv/h),MP-8(��Sv/h),����,����(m/s),���J
2021/03/29,00:00,0.622,0.903,0.580,1.119,0.789,0.371,0.645,0.607,��,7.5,�L
2021/03/29,00:10,0.624,0.903,0.580,1.119,0.789,0.373,0.646,0.607,��,8.4,�L
2021/03/29,00:20,0.624,0.902,0.581,1.120,0.788,0.373,0.646,0.607,��,7.9,�L
2021/03/29,00:30,0.625,0.903,0.580,1.120,0.789,0.372,0.646,0.607,��,9.2,�L
2021/03/29,00:40,0.623,0.899,0.582,1.116,0.786,0.372,0.645,0.606,��,7.9,�L
2021/03/29,00:50,0.622,0.901,0.583,1.118,0.785,0.374,0.646,0.607,��,8.1,�L
2021/03/29,01:00,0.622,0.899,0.580,1.118,0.785,0.373,0.645,0.605,��,9.2,�L
2021/03/29,01:10,0.624,0.896,0.579,1.117,0.784,0.371,0.645,0.605,��,7.5,�L
2021/03/29,01:20,0.619,0.896,0.581,1.115,0.784,0.372,0.644,0.605,��,7.3,�L
2021/03/29,01:30,0.619,0.896,0.578,1.113,0.784,0.373,0.644,0.602,��,8.7,�L
2021/03/29,01:40,0.617,0.892,0.581,1.115,0.783,0.373,0.643,0.605,��,8.0,�L
2021/03/29,01:50,0.618,0.887,0.577,1.111,0.779,0.372,0.642,0.603,��,7.4,�L
2021/03/29,02:00,0.615,0.888,0.577,1.109,0.778,0.369,0.642,0.603,��,7.0,�L
2021/03/29,02:10,0.616,0.887,0.575,1.107,0.777,0.371,0.641,0.602,��,7.9,�L
2021/03/29,02:20,0.614,0.884,0.575,1.103,0.774,0.369,0.642,0.603,��,6.6,�L
2021/03/29,02:30,0.611,0.880,0.573,1.100,0.771,0.369,0.639,0.600,��,6.8,�L
2021/03/29,02:40,0.610,0.875,0.572,1.095,0.767,0.369,0.637,0.598,��,6.4,�L
2021/03/29,02:50,0.609,0.878,0.573,1.095,0.766,0.367,0.637,0.597,��,5.6,�L
2021/03/29,03:00,0.608,0.875,0.571,1.092,0.765,0.366,0.638,0.598,-,CALM,�L
2021/03/29,03:10,0.607,0.875,0.573,1.093,0.764,0.367,0.637,0.598,-,CALM,�L
2021/03/29,03:20,0.608,0.872,0.571,1.091,0.764,0.365,0.635,0.597,-,CALM,�L
2021/03/29,03:30,0.606,0.871,0.571,1.085,0.759,0.365,0.635,0.599,-,CALM,�L
2021/03/29,03:40,0.602,0.870,0.570,1.083,0.756,0.364,0.632,0.595,-,CALM,�L
2021/03/29,03:50,0.598,0.864,0.568,1.076,0.751,0.363,0.632,0.593,���k��,4.2,�L
2021/03/29,04:00,0.598,0.863,0.567,1.073,0.749,0.364,0.631,0.593,-,CALM,�L
2021/03/29,04:10,0.596,0.860,0.565,1.068,0.741,0.362,0.628,0.589,�k��,8.2,�L
2021/03/29,04:20,0.596,0.856,0.564,1.066,0.742,0.364,0.628,0.591,�k��,2.3,�L
2021/03/29,04:30,0.601,0.861,0.567,1.067,0.743,0.363,0.630,0.589,�k�k��,0.9,�L
2021/03/29,04:40,0.602,0.864,0.568,1.071,0.743,0.363,0.629,0.591,��,1.9,�L
2021/03/29,04:50,0.607,0.867,0.569,1.072,0.745,0.363,0.629,0.591,���쓌,1.2,�L
2021/03/29,05:00,0.607,0.870,0.570,1.073,0.747,0.365,0.631,0.592,�k��,1.1,�L
2021/03/29,05:10,0.606,0.868,0.569,1.072,0.746,0.364,0.630,0.591,-,CALM,�L
2021/03/29,05:20,0.603,0.867,0.569,1.071,0.741,0.364,0.630,0.592,�k��,2.6,�L
2021/03/29,05:30,0.607,0.870,0.570,1.074,0.747,0.366,0.632,0.593,�k��,3.8,�L
2021/03/29,05:40,0.609,0.875,0.570,1.079,0.750,0.367,0.635,0.596,�k��,5.4,��
2021/03/29,05:50,0.612,0.877,0.572,1.081,0.752,0.367,0.634,0.595,���k��,4.8,��
2021/03/29,06:00,0.609,0.879,0.570,1.083,0.753,0.366,0.635,0.598,��,4.5,��
2021/03/29,06:10,0.613,0.882,0.571,1.083,0.753,0.366,0.634,0.598,���k��,4.6,��
2021/03/29,06:20,0.611,0.883,0.570,1.085,0.754,0.366,0.635,0.601,���쓌,2.2,��
2021/03/29,06:30,0.611,0.883,0.570,1.086,0.755,0.365,0.634,0.601,-,CALM,��
2021/03/29,06:40,0.610,0.882,0.570,1.087,0.756,0.366,0.635,0.600,�k��,1.9,��
2021/03/29,06:50,0.610,0.882,0.569,1.087,0.759,0.365,0.635,0.600,�k�k��,2.0,��
2021/03/29,07:00,0.609,0.882,0.570,1.090,0.758,0.365,0.635,0.600,�k�k��,2.3,��
2021/03/29,07:10,0.609,0.885,0.569,1.088,0.760,0.365,0.636,0.600,�k�k��,3.1,��
2021/03/29,07:20,0.611,0.884,0.571,1.089,0.759,0.366,0.637,0.601,�k��,3.4,��
2021/03/29,07:30,0.611,0.886,0.571,1.092,0.761,0.364,0.639,0.602,�k�k��,4.1,��
2021/03/29,07:40,0.612,0.885,0.572,1.094,0.762,0.366,0.637,0.601,�k�k��,4.2,��
2021/03/29,07:50,0.611,0.883,0.570,1.093,0.762,0.364,0.638,0.601,�k�k��,4.4,��
2021/03/29,08:00,0.612,0.883,0.570,1.093,0.763,0.363,0.640,0.601,�k�k��,4.3,��
2021/03/29,08:10,0.612,0.884,0.573,1.095,0.762,0.362,0.638,0.600,�k�k��,4.2,��
2021/03/29,08:20,0.612,0.885,0.570,1.096,0.764,0.365,0.638,0.599,�k�k��,4.5,��
2021/03/29,08:30,0.611,0.884,0.570,1.098,0.763,0.364,0.640,0.601,�k�k��,4.6,��
2021/03/29,08:40,0.610,0.887,0.572,1.098,0.763,0.364,0.639,0.601,�k�k��,4.2,��
2021/03/29,08:50,0.613,0.887,0.571,1.098,0.762,0.364,0.639,0.600,�k�k��,4.7,��
2021/03/29,09:00,0.614,0.886,0.570,1.098,0.763,0.366,0.640,0.600,�k�k��,4.4,��
2021/03/29,09:10,0.615,0.889,0.573,1.099,0.765,0.366,0.641,0.600,�k�k��,3.9,��
2021/03/29,09:20,0.615,0.886,0.570,1.102,0.764,0.366,0.641,0.602,�k�k��,4.2,��
2021/03/29,09:30,0.615,0.890,0.572,1.101,0.767,0.366,0.640,0.601,�k�k��,3.6,��
2021/03/29,09:40,0.615,0.889,0.574,1.103,0.766,0.366,0.642,0.600,�k�k��,3.0,��
2021/03/29,09:50,0.619,0.889,0.574,1.103,0.765,0.366,0.642,0.600,�k�k��,3.8,��
2021/03/29,10:00,0.616,0.892,0.573,1.104,0.769,0.366,0.643,0.601,�k�k��,3.3,��
2021/03/29,10:10,0.617,0.893,0.574,1.105,0.768,0.367,0.642,0.601,�k��,3.0,��
2021/03/29,10:20,0.618,0.893,0.574,1.104,0.771,0.366,0.644,0.601,�k�k��,3.4,��
2021/03/29,10:30,0.616,0.894,0.573,1.106,0.771,0.366,0.642,0.601,�k��,4.3,��
2021/03/29,10:40,0.617,0.893,0.575,1.108,0.772,0.367,0.643,0.603,�k�k��,5.2,��
2021/03/29,10:50,0.618,0.895,0.574,1.107,0.773,0.367,0.642,0.602,�k�k��,4.5,��
2021/03/29,11:00,0.618,0.896,0.575,1.107,0.773,0.366,0.642,0.601,�k��,3.7,��
2021/03/29,11:10,0.616,0.897,0.575,1.107,0.774,0.367,0.644,0.602,�k�k��,4.7,��
2021/03/29,11:20,0.619,0.897,0.575,1.106,0.775,0.366,0.642,0.603,�k��,4.9,��
2021/03/29,11:30,0.618,0.897,0.576,1.107,0.775,0.368,0.643,0.602,�k��,4.1,��
2021/03/29,11:40,0.619,0.899,0.576,1.107,0.775,0.367,0.644,0.602,�k��,3.7,��
2021/03/29,11:50,0.620,0.899,0.576,1.108,0.777,0.367,0.644,0.602,�k��,4.8,��
2021/03/29,12:00,0.619,0.899,0.576,1.110,0.777,0.367,0.642,0.603,�k��,3.7,��
2021/03/29,12:10,0.620,0.900,0.578,1.109,0.778,0.368,0.643,0.602,�k��,3.9,��
2021/03/29,12:20,0.620,0.901,0.577,1.110,0.778,0.368,0.644,0.603,���k��,2.6,��
2021/03/29,12:30,0.620,0.901,0.576,1.111,0.777,0.367,0.644,0.604,���k��,2.3,��
2021/03/29,12:40,0.621,0.902,0.578,1.109,0.781,0.367,0.645,0.602,���k��,2.3,��
2021/03/29,12:50,0.620,0.903,0.578,1.113,0.779,0.367,0.646,0.605,��,2.3,��
2021/03/29,13:00,0.621,0.901,0.577,1.111,0.780,0.367,0.644,0.605,��,1.5,��
2021/03/29,13:10,0.621,0.898,0.579,1.113,0.781,0.368,0.647,0.605,��,2.2,��
2021/03/29,13:20,0.624,0.902,0.579,1.112,0.781,0.367,0.646,0.605,��,1.5,��
2021/03/29,13:30,0.622,0.900,0.579,1.112,0.781,0.367,0.645,0.605,���쓌,1.7,��
2021/03/29,13:40,0.621,0.901,0.579,1.114,0.781,0.368,0.644,0.607,�쓌,2.3,��
2021/03/29,13:50,0.622,0.898,0.579,1.114,0.780,0.369,0.644,0.605,�쓌,2.9,��
2021/03/29,14:00,0.623,0.904,0.579,1.114,0.783,0.368,0.646,0.605,��쓌,2.6,��
2021/03/29,14:10,0.624,0.903,0.580,1.114,0.780,0.368,0.644,0.604,��쓌,3.0,��
2021/03/29,14:20,0.624,0.905,0.581,1.116,0.783,0.367,0.645,0.605,�쓌,4.6,��
2021/03/29,14:30,0.622,0.904,0.578,1.113,0.783,0.368,0.646,0.605,��쓌,5.8,��
2021/03/29,14:40,0.624,0.906,0.579,1.116,0.783,0.369,0.646,0.605,��쓌,6.3,��
2021/03/29,14:50,0.621,0.905,0.579,1.113,0.783,0.367,0.646,0.606,��쓌,6.9,��
2021/03/29,15:00,0.623,0.906,0.579,1.112,0.786,0.369,0.647,0.606,��쓌,5.9,��
2021/03/29,15:10,0.621,0.907,0.581,1.114,0.784,0.369,0.645,0.605,��쓌,6.9,��
2021/03/29,15:20,0.623,0.906,0.579,1.117,0.785,0.369,0.647,0.604,��쓌,8.0,��
2021/03/29,15:30,0.624,0.906,0.580,1.116,0.785,0.368,0.647,0.605,��,5.7,��
2021/03/29,15:40,0.624,0.908,0.581,1.117,0.783,0.369,0.648,0.605,��쓌,5.9,��
2021/03/29,15:50,0.624,0.907,0.580,1.116,0.783,0.368,0.648,0.604,��쓌,6.3,��
2021/03/29,16:00,0.624,0.905,0.578,1.115,0.784,0.369,0.645,0.608,��쓌,6.9,��
2021/03/29,16:10,0.625,0.906,0.578,1.117,0.784,0.369,0.646,0.605,��,6.6,��
2021/03/29,16:20,0.623,0.907,0.579,1.117,0.783,0.369,0.648,0.605,��쓌,7.7,��
2021/03/29,16:30,0.623,0.908,0.580,1.114,0.783,0.368,0.647,0.606,��쓌,6.3,��
2021/03/29,16:40,0.624,0.907,0.580,1.115,0.783,0.369,0.645,0.606,��,6.4,��
2021/03/29,16:50,0.624,0.906,0.580,1.116,0.785,0.371,0.647,0.604,��,4.8,��
2021/03/29,17:00,0.623,0.907,0.581,1.118,0.783,0.368,0.647,0.604,��,6.5,��
2021/03/29,17:10,0.624,0.909,0.580,1.116,0.785,0.370,0.646,0.607,��,8.0,��
2021/03/29,17:20,0.623,0.907,0.581,1.116,0.784,0.370,0.647,0.606,��,8.0,��
2021/03/29,17:30,0.623,0.907,0.579,1.117,0.786,0.369,0.647,0.605,��,7.9,��
2021/03/29,17:40,0.623,0.909,0.579,1.117,0.787,0.370,0.645,0.606,��,5.7,��
2021/03/29,17:50,0.625,0.908,0.581,1.115,0.786,0.370,0.646,0.607,��,5.1,��
2021/03/29,18:00,0.626,0.909,0.582,1.118,0.786,0.370,0.648,0.607,��쐼,3.0,��
2021/03/29,18:10,0.626,0.914,0.583,1.116,0.787,0.370,0.648,0.608,��,4.9,��
2021/03/29,18:20,0.625,0.912,0.583,1.118,0.787,0.371,0.646,0.608,��,7.5,��
2021/03/29,18:30,0.627,0.912,0.582,1.118,0.784,0.370,0.648,0.608,��,7.8,��
2021/03/29,18:40,0.626,0.909,0.585,1.119,0.789,0.371,0.648,0.608,��쐼,4.6,��
2021/03/29,18:50,0.627,0.913,0.582,1.116,0.789,0.369,0.649,0.608,�쐼,3.1,��
2021/03/29,19:00,0.627,0.913,0.584,1.121,0.789,0.373,0.649,0.609,�쐼,3.5,��
2021/03/29,19:10,0.624,0.914,0.584,1.117,0.788,0.369,0.647,0.609,��,2.2,��
2021/03/29,19:20,0.627,0.913,0.584,1.115,0.787,0.370,0.647,0.609,�k�k��,3.1,��
2021/03/29,19:30,0.626,0.912,0.582,1.118,0.789,0.370,0.649,0.608,�k�k��,4.9,��
2021/03/29,19:40,0.626,0.913,0.584,1.117,0.788,0.370,0.649,0.610,�k�k��,4.8,��
2021/03/29,19:50,0.625,0.913,0.584,1.117,0.789,0.371,0.648,0.608,�k�k��,4.6,��
2021/03/29,20:00,0.626,0.912,0.583,1.118,0.790,0.370,0.649,0.608,�k,4.7,��
2021/03/29,20:10,0.625,0.909,0.582,1.118,0.788,0.371,0.647,0.609,�k,4.7,��
2021/03/29,20:20,0.627,0.912,0.583,1.118,0.790,0.371,0.648,0.609,�k,4.7,��
2021/03/29,20:30,0.625,0.913,0.583,1.118,0.791,0.370,0.648,0.608,�k,4.4,��
2021/03/29,20:40,0.626,0.913,0.584,1.118,0.789,0.370,0.648,0.607,�k,4.2,��
2021/03/29,20:50,0.625,0.911,0.583,1.114,0.790,0.370,0.650,0.609,�k,3.9,��
2021/03/29,21:00,0.626,0.912,0.582,1.118,0.790,0.370,0.647,0.608,�k�k��,4.1,��
2021/03/29,21:10,0.625,0.911,0.582,1.118,0.790,0.371,0.647,0.609,�k�k��,3.7,��
2021/03/29,21:20,0.626,0.911,0.582,1.119,0.789,0.370,0.650,0.610,�k,3.1,��
2021/03/29,21:30,0.625,0.911,0.582,1.117,0.789,0.371,0.648,0.609,�k,3.5,��
2021/03/29,21:40,0.626,0.911,0.583,1.117,0.789,0.370,0.649,0.609,�k,4.3,��
2021/03/29,21:50,0.626,0.910,0.583,1.118,0.790,0.371,0.648,0.608,�k,4.1,��
2021/03/29,22:00,0.627,0.910,0.582,1.115,0.790,0.370,0.649,0.609,�k�k��,4.4,��
2021/03/29,22:10,0.626,0.910,0.583,1.118,0.791,0.371,0.648,0.610,�k�k��,3.9,��
2021/03/29,22:20,0.625,0.910,0.582,1.120,0.790,0.371,0.650,0.607,�k�k��,3.9,��
2021/03/29,22:30,0.625,0.909,0.583,1.119,0.792,0.371,0.650,0.608,�k��,3.0,��
2021/03/29,22:40,0.624,0.909,0.583,1.120,0.790,0.371,0.649,0.609,�k�k��,3.6,��
2021/03/29,22:50,0.625,0.910,0.582,1.119,0.789,0.372,0.648,0.610,�k��,5.5,��
2021/03/29,23:00,0.626,0.910,0.583,1.118,0.791,0.371,0.649,0.607,�k��,6.0,��
2021/03/29,23:10,0.625,0.911,0.583,1.118,0.790,0.370,0.649,0.609,�k�k��,6.2,��
2021/03/29,23:20,0.625,0.911,0.582,1.119,0.790,0.372,0.650,0.610,�k��,7.1,��
2021/03/29,23:30,0.625,0.911,0.581,1.119,0.792,0.372,0.649,0.609,�k�k��,6.5,��
2021/03/29,23:40,0.625,0.911,0.582,1.118,0.791,0.373,0.649,0.610,�k��,6.5,��
2021/03/29,23:50,0.624,0.912,0.583,1.119,0.792,0.371,0.649,0.608,�k�k��,6.0,��
